WetterOnline ( http://www.wetteronline.de )

Wetter aktuell Weiden

Aktuelles Wetter: Weiden (439m)

6-stündlich | Neueste Meldungen
Ortszeit Temperatur Wetter
Di, 22.01. 7:00 -9.0° C bedeckt
Di, 22.01. 1:00 -8.9° C wolkenlos
Mo, 21.01. 19:00 -4.1° C wolkenlos
Mo, 21.01. 13:00 -1.1° C bewölkt
Mo, 21.01. 7:00 -2.8° C bedeckt
Mo, 21.01. 1:00 -3.0° C bedeckt
So, 20.01. 19:00 -3.2° C bedeckt
So, 20.01. 13:00 -2.8° C bedeckt
Ortszeit Temperatur Wetter
Di, 22.01. 9:00 -7.8° C bedeckt
Di, 22.01. 8:30 -8.3° C bedeckt
Di, 22.01. 8:20 -8.3° C bedeckt
Di, 22.01. 8:10 -8.4° C bedeckt
Di, 22.01. 8:00 -8.6° C bedeckt
Di, 22.01. 7:50 -8.6° C bedeckt
Di, 22.01. 7:30 -8.9° C bedeckt
Di, 22.01. 7:00 -9.0° C bedeckt
Di, 22.01. 6:30 -9.5° C bedeckt
Di, 22.01. 6:00 -10.0° C bedeckt
Di, 22.01. 5:30 -10.5° C leicht bewölkt
Ortszeit Relative Feuchte Sichtweite
Di, 22.01. 7:00 90% 7 km
Di, 22.01. 1:00 91% 7 km
Mo, 21.01. 19:00 75% 14 km
Mo, 21.01. 13:00 63% 13 km
Mo, 21.01. 7:00 73% 15 km
Mo, 21.01. 1:00 74% 13 km
So, 20.01. 19:00 75% 16 km
So, 20.01. 13:00 73% 16 km
Ortszeit Relative Feuchte Sichtweite
Di, 22.01. 9:00 90% 6 km
Di, 22.01. 8:30 88% 6 km
Di, 22.01. 8:20 88% -
Di, 22.01. 8:10 88% -
Di, 22.01. 8:00 90% 6 km
Di, 22.01. 7:50 90% -
Di, 22.01. 7:30 90% 7 km
Di, 22.01. 7:00 90% 7 km
Di, 22.01. 6:30 91% 6 km
Di, 22.01. 6:00 91% 7 km
Di, 22.01. 5:30 90% 6 km
Ortszeit Niederschlagsmenge Niederschlagsart
Di, 22.01. 7:00 0.0 l/m2 in 12 Std. -
Di, 22.01. 1:00 0.0 l/m2 in 6 Std. -
Mo, 21.01. 19:00 0.0 l/m2 in 12 Std. -
Mo, 21.01. 13:00 0.0 l/m2 in 6 Std. -
Mo, 21.01. 7:00 0.0 l/m2 in 12 Std. -
Mo, 21.01. 1:00 0.0 l/m2 in 6 Std. -
So, 20.01. 19:00 0.1 l/m2 in 12 Std. -
So, 20.01. 13:00 0.1 l/m2 in 6 Std. Niederschlag
Ortszeit Niederschlagsmenge Niederschlagsart
Di, 22.01. 9:00 0.0 l/m2 in 1 Std. -
Di, 22.01. 8:30 0.0 l/m2 in 1 Std. -
Di, 22.01. 8:20 keine Meldung -
Di, 22.01. 8:10 keine Meldung -
Di, 22.01. 8:00 0.0 l/m2 in 1 Std. -
Di, 22.01. 7:50 keine Meldung -
Di, 22.01. 7:30 0.0 l/m2 in 1 Std. -
Di, 22.01. 7:00 0.0 l/m2 in 1 Std. -
Di, 22.01. 6:30 0.0 l/m2 in 1 Std. -
Di, 22.01. 6:00 0.0 l/m2 in 1 Std. -
Di, 22.01. 5:30 0.0 l/m2 in 1 Std. -
Ortszeit Stärke Spitze Richtung
km/h Bft. km/h Grad Sektor
Di, 22.01. 7:00 0 0 4 - -
Di, 22.01. 1:00 4 1 7 190° S
Mo, 21.01. 19:00 4 1 14 80° O
Mo, 21.01. 13:00 4 1 22 330° NW
Mo, 21.01. 7:00 0 0 18 - -
Mo, 21.01. 1:00 7 2 22 70° O
So, 20.01. 19:00 13 3 22 50° NO
So, 20.01. 13:00 9 2 17 30° NO
Ortszeit Stärke Spitze Richtung
km/h Bft. km/h Grad Sektor
Di, 22.01. 9:00 0 0 4 - -
Di, 22.01. 8:30 0 0 4 - -
Di, 22.01. 8:20 0 0 - 220° SW
Di, 22.01. 8:10 0 0 - 270° W
Di, 22.01. 8:00 0 0 4 - -
Di, 22.01. 7:50 0 0 - 90° O
Di, 22.01. 7:30 2 1 4 280° W
Di, 22.01. 7:00 0 0 4 - -
Di, 22.01. 6:30 0 0 4 - -
Di, 22.01. 6:00 2 1 4 10° N
Di, 22.01. 5:30 0 0 4 - -
Ortszeit Untergrenze Bedeckung Gattung
total tief tief mittel hoch
Di, 22.01. 7:00 540 m 8/8 8/8 - - -
Di, 22.01. 1:00 - 0/8 0/8 - - -
Mo, 21.01. 19:00 - 0/8 0/8 - - -
Mo, 21.01. 13:00 750 m 7/8 7/8 - - -
Mo, 21.01. 7:00 810 m 8/8 8/8 - - -
Mo, 21.01. 1:00 540 m 8/8 8/8 - - -
So, 20.01. 19:00 480 m 8/8 8/8 - - -
So, 20.01. 13:00 510 m 8/8 8/8 - - -
Ortszeit Bedeckungsgrad in Achtel und Wolkenuntergrenze
Di, 22.01. 9:00 8(480m)
Di, 22.01. 8:30 8(510m)
Di, 22.01. 8:20 8(510m)
Di, 22.01. 8:10 8(510m)
Di, 22.01. 8:00 8(540m)
Di, 22.01. 7:50 8(540m)
Di, 22.01. 7:30 8(540m)
Di, 22.01. 7:00 8(540m)
Di, 22.01. 6:30 8(570m)
Di, 22.01. 6:00 8(600m)
Di, 22.01. 5:30 3(630m)
Ortszeit Luftdruck NN (hPa) Tendenz (hPa in 3 Std.)
Di, 22.01. 7:00 1018 - 1,5
Di, 22.01. 1:00 1021 - 0,5
Mo, 21.01. 19:00 1021 - 0,2
Mo, 21.01. 13:00 1023 - 0,6
Mo, 21.01. 7:00 1023 - 0,1
Mo, 21.01. 1:00 1023 + 0,8
So, 20.01. 19:00 1020 + 1,5
So, 20.01. 13:00 1018 + 0,5
Ortszeit Luftdruck NN (hPa) Tendenz (hPa in 3 Std.)
Di, 22.01. 9:00 1017 - 1,1
Di, 22.01. 8:30 1017 - 1,2
Di, 22.01. 8:20 1017 keine Meldung
Di, 22.01. 8:10 1017 keine Meldung
Di, 22.01. 8:00 1018 - 1,3
Di, 22.01. 7:50 1018 keine Meldung
Di, 22.01. 7:30 1018 - 1,2
Di, 22.01. 7:00 1018 - 1,5
Di, 22.01. 6:30 1018 - 1,5
Di, 22.01. 6:00 1019 - 1,7
Di, 22.01. 5:30 1019 - 1,6
Ortszeit Schneehöhe (cm)
Di, 22.01. 7:00 0
Di, 22.01. 1:00 0
Mo, 21.01. 19:00 0
Mo, 21.01. 13:00 0
Mo, 21.01. 7:00 0
Mo, 21.01. 1:00 0
So, 20.01. 19:00 0
So, 20.01. 13:00 0
Ortszeit Schneehöhe (cm)
Di, 22.01. 9:00 0
Di, 22.01. 8:30 0
Di, 22.01. 8:20 0
Di, 22.01. 8:10 0
Di, 22.01. 8:00 0
Di, 22.01. 7:50 0
Di, 22.01. 7:30 0
Di, 22.01. 7:00 0
Di, 22.01. 6:30 0
Di, 22.01. 6:00 0
Di, 22.01. 5:30 0
Link zu dieser Seite / Seite empfehlen

Das Wetter in ...